Regional Weather Roundup
Issued by NWS

Home | Current Version | Previous Version | Text Only | Print | Product List | Glossary On
Versions: 1 2 3 4 5 6 7 8 9 10 11 12 13 14 15 16 17 18 19 20 21 22 23 24 25 26 27 28 29 30 31 32 33 34 35 36 37 38 39 40 41 42 43 44 45 46 47 48 49 50
000
ASUS42 KFFC 270703
RWRGA
WEATHER ROUNDUP FOR GEORGIA
NATIONAL WEATHER SERVICE PEACHTREE CITY GA
300 AM EDT MON APR 27 2015

NOTE: "FAIR" INDICATES FEW OR NO CLOUDS BELOW 12,000 FEET WITH NO
SIGNIFICANT WEATHER AND/OR OBSTRUCTIONS TO VISIBILITY.

* = USE WITH CAUTION. THE STATIONS MARKED WITH AN ASTERISK MAY NOT
REPORT WEATHER SUCH AS PRECIPITATION, FOG, OR THUNDER AND ARE NOT
QUALITY CONTROLLED BY NWS.

THE REMARK "TC" DENOTES TEMPERATURE READING IN DEGREES CELSIUS.

GAZ001>058-270800-
NORTH GEORGIA

CITY           SKY/WX    TMP DP  RH WIND       PRES   REMARKS
ATLANTA        PTCLDY    54  48  80 NW8       29.79S
ATHENS         CLOUDY    58  54  86 E6        29.79S
CHAMBLEE       CLEAR     52  48  86 NW7       29.79S
PEACHTREE CITY CLEAR     55  49  80 NW7       29.80S
ROME           CLEAR     52  46  80 N5        29.82F
WEST ATLANTA   CLEAR     54  47  77 CALM      29.80S
GAINESVILLE    CLOUDY    56  51  84 NE8       29.81S
CARTERSVILLE   CLEAR     50  46  86 CALM      29.82F


CITY           SKY/WX    TMP DP  RH WIND       PRES   REMARKS
DALTON*        CLEAR     50  46  87 NW6       29.83F
BLAIRSVILLE*     N/A     49  32  51 CALM      29.82S
$$

GAZ059>098-102>109-270800-
CENTRAL GEORGIA

CITY           SKY/WX    TMP DP  RH WIND       PRES   REMARKS
AUGUSTA-BUSH   MOCLDY    56  49  77 NE6       29.77F
AUGUSTA-DANIEL PTCLDY    57  48  72 NE7       29.78S
COLUMBUS       CLOUDY    64  54  69 NE5       29.76S
MACON          PTCLDY    64  52  64 N6        29.75F


CITY           SKY/WX    TMP DP  RH WIND       PRES   REMARKS
LAGRANGE*      CLOUDY    61  54  78 NE8       29.79R
SYLVANIA*      CLOUDY    59  56  91 NE7       29.75S
MILLEDGEVILLE* MOCLDY    61  57  88 NE3       29.76S
$$

GAZ099>101-110>166-270800-
SOUTH GEORGIA

CITY           SKY/WX    TMP DP  RH WIND       PRES   REMARKS
SAVANNAH       CLOUDY    64  58  80 N8        29.71F
VALDOSTA       CLOUDY    70  68  93 CALM      29.70F
ALMA           MOCLDY    72  63  73 NW6       29.68F
ST SIMONS      CLOUDY    73  68  84 W6        29.66F
ALBANY         CLOUDY    70  60  70 N10       29.74S
BRUNSWICK      CLOUDY    73  66  78 W5        29.67F


CITY           SKY/WX    TMP DP  RH WIND       PRES   REMARKS
BAINBRIDGE*    CLOUDY    73  72  94 CALM      29.72S
MOULTRIE*      CLOUDY    70  70 100 CALM      29.72S
VIDALIA*       CLOUDY    63  61  94 NE10      29.72S
WAYCROSS*      MOCLDY    75  71  86 W6        29.68S
DOUGLAS*       CLOUDY    72  64  78 NW3       29.71S
$$



USA.gov is the U.S. government's official web portal to all federal, state and local government web resources and services.